C/2019 T2 ( Lemmon )

Japanese version
Home page
Updated on April 4, 2021

---------------------------------------------------------------------

* Profile

Discovery Date October 9, 2019
Magnitude 20.6 mag
Discoverer Mt. Lemmon Survey

* Pictures

* Orbital Elements

Epoch 2021 Apr. 16.0 TT = JDT 2459320.5
T 2021 Apr. 22.27312 TT                                 Rudenko
q   2.6459816            (2000.0)            P               Q
z  +0.0005053      Peri.  239.38552     +0.33390784     -0.86095006
 +/-0.0000013      Node   155.64262     -0.13766545     +0.35821775
e   0.9986631      Incl.  111.48894     -0.93249868     -0.36117175
From 744 observations 2019 Aug. 26-2020 Dec. 12, mean residual 0".6.

* Finding Charts

* Magnitudes Graph

        m1 = 8.0 + 5 log d + 11.0 log r

---------------------------------------------------------------------

The orbital elements are published on M.P.E.C. 2021-F20.
The charts are made with StellaNavigator Ver.10 (AstroArts).
The magnitudes graphs are made with Comet for Windows.

---------------------------------------------------------------------

Copyright(C) Seiichi Yoshida (comet@aerith.net). All rights reserved.